San Angelo, TX

9:31 PM CDT on May 29, 2017 (GMT -0500)
San Angelo Regional-Mathis

Weather History for KSJT - September, 2013

Change the Weather History Date:

Wednesday, September 25, 2013

  Actual Average Record
Temperature  
Mean Temperature 76 °F 73 °F  
Max Temperature 92 °F 85 °F 107 °F (2005)
Min Temperature 59 °F 60 °F 37 °F (1989)
Degree Days  
Heating Degree Days 0 1  
Month to date heating degree days 0 3  
Since 1 July heating degree days 0 3  
Cooling Degree Days 11 8  
Month to date cooling degree days 344 292  
Year to date cooling degree days 2670 2328  
Growing Degree Days 26 (Base 50)    
Moisture  
Dew Point 58 °F    
Average Humidity 63    
Maximum Humidity 97    
Minimum Humidity 28    
Precipitation  
Precipitation 0.00 in 0.08 in 3.20 in (1937)
Month to date precipitation 3.69 2.09  
Year to date precipitation 15.45 16.16  
Sea Level Pressure  
Sea Level Pressure 29.83 in    
Wind  
Wind Speed 7 mph (SSW)    
Max Wind Speed 18 mph    
Max Gust Speed 25 mph    
Visibility 10 miles    
Events      
T = Trace of Precipitation, MM = Missing Value Source: NWS Daily Summary

Daily Weather History Graph

Daily Weather History Graph

Search for Another Location

Airport or City:

Trip Planner

Search our weather history database for the weather conditions in past years. The results will help you decide how hot, cold, wet, or windy it might be!

Date:

Astronomy

Sep. 25, 2013 Rise Set
Actual Time 7:32 AM CDT 7:34 PM CDT
Civil Twilight 7:08 AM CDT 7:58 PM CDT
Nautical Twilight 6:39 AM CDT 8:26 PM CDT
Astronomical Twilight 6:11 AM CDT 8:55 PM CDT
Moon No Moon Rise 1:19 PM CDT (9/25)
Length of Visible Light 12h 50m
Length of Day
12h 02m
Waning Gibbous, 64% of the Moon is Illuminated
Sep 25
Waning Gibbous
Sep 26
Last Quarter
Oct 4
New
Oct 11
First Quarter
Oct 18
Full

Hourly Weather History & Observations

Time (CDT) Temp. Heat Index Dew Point Humidity Pressure Visibility Wind Dir Wind Speed Gust Speed Precip Events Conditions
12:51 AM 66.9 °F - 57.9 °F 73% 29.89 in 10.0 mi Calm Calm - N/A   Clear
1:51 AM 64.0 °F - 59.0 °F 84% 29.88 in 10.0 mi Calm Calm - N/A   Clear
2:51 AM 62.1 °F - 57.9 °F 86% 29.89 in 10.0 mi Calm Calm - N/A   Clear
3:51 AM 62.1 °F - 59.0 °F 90% 29.87 in 10.0 mi WSW 3.5 mph - N/A   Clear
4:51 AM 62.1 °F - 59.0 °F 90% 29.87 in 10.0 mi Calm Calm - N/A   Clear
5:51 AM 61.0 °F - 57.9 °F 90% 29.87 in 10.0 mi West 3.5 mph - N/A   Clear
6:51 AM 60.1 °F - 57.9 °F 93% 29.87 in 10.0 mi Calm Calm - N/A   Clear
7:51 AM 61.0 °F - 59.0 °F 93% 29.88 in 10.0 mi Calm Calm - N/A   Clear
8:51 AM 68.0 °F - 61.0 °F 78% 29.89 in 10.0 mi Calm Calm - N/A   Clear
9:51 AM 73.0 °F - 61.0 °F 66% 29.89 in 10.0 mi South 8.1 mph - N/A   Clear
10:51 AM 82.0 °F 82.7 °F 61.0 °F 49% 29.88 in 10.0 mi SSW 11.5 mph - N/A   Clear
11:51 AM 86.0 °F 85.4 °F 59.0 °F 40% 29.86 in 10.0 mi SSW 13.8 mph - N/A   Clear
12:51 PM 89.1 °F 88.0 °F 57.9 °F 35% 29.84 in 10.0 mi SSW 17.3 mph 24.2 mph N/A   Clear
1:51 PM 90.0 °F 88.8 °F 57.9 °F 34% 29.81 in 10.0 mi SW 15.0 mph 24.2 mph N/A   Clear
2:51 PM 91.0 °F 89.2 °F 55.9 °F 30% 29.78 in 10.0 mi SSW 15.0 mph - N/A   Partly Cloudy
3:51 PM 91.9 °F 90.0 °F 55.0 °F 29% 29.76 in 10.0 mi South 9.2 mph 18.4 mph N/A   Clear
4:51 PM 91.0 °F 88.7 °F 54.0 °F 28% 29.75 in 10.0 mi SSW 16.1 mph - N/A   Clear
5:51 PM 90.0 °F 87.9 °F 55.0 °F 30% 29.74 in 10.0 mi South 13.8 mph - N/A   Clear
6:51 PM 88.0 °F 85.9 °F 54.0 °F 31% 29.75 in 10.0 mi South 10.4 mph - N/A   Clear
7:51 PM 82.0 °F 81.6 °F 55.9 °F 41% 29.75 in 10.0 mi South 5.8 mph - N/A   Clear
8:51 PM 78.1 °F - 57.0 °F 48% 29.76 in 10.0 mi South 5.8 mph - N/A   Clear
9:51 PM 73.9 °F - 57.9 °F 57% 29.77 in 10.0 mi SSE 3.5 mph - N/A   Clear
10:51 PM 71.1 °F - 59.0 °F 66% 29.77 in 10.0 mi South 4.6 mph - N/A   Clear
11:51 PM 69.1 °F - 59.0 °F 70% 29.77 in 10.0 mi SSW 4.6 mph - N/A   Clear